This demonstration page uses our WeatherBlox Daily Observations layout. Learn more.

Left ArrowRight Arrow

36.17497, -115.13722

Hourly Observations for June 4, 2021

Temp ( °F °C ) Dew Point ( °F °C ) Humidity (%) Winds ( mph kmh ) Pressure ( in mb ) Visibility ( mi km ) Precip ( " mm )
12:53 am 00:53 Clear 94 34.4 34 1.1 12 12 S 3 6 29.66 1005 10 16 N/A
1:53 am 01:53 Clear 90 32.2 35 1.7 14 14 NW 7 11 29.67 1005 10 16 N/A
2:53 am 02:53 Clear 88 31.1 36 2.2 16 16 NW 5 7 29.68 1005 10 16 N/A
3:53 am 03:53 Clear 85 29.4 38 3.3 19 19 N 9 15 29.70 1006 10 16 N/A
4:53 am 04:53 Clear 86 30 37 2.8 18 18 N 6 9 29.72 1006 10 16 N/A
5:53 am 05:53 Sunny 84 28.9 38 3.3 19 19 WNW 8 13 29.74 1007 10 16 N/A
6:53 am 06:53 Sunny 86 30 38 3.3 18 18 NNW 6 9 29.75 1008 10 16 N/A
7:53 am 07:53 Sunny 89 31.7 39 3.9 17 17 E 5 7 29.77 1008 10 16 N/A
8:53 am 08:53 Sunny 92 33.3 37 2.8 14 14 ESE 8 13 29.78 1009 10 16 N/A
9:53 am 09:53 Sunny 96 35.6 36 2.2 12 12 ESE 9 15 29.78 1009 10 16 N/A
10:53 am 10:53 Sunny 97 36.1 36 2.2 12 12 SE 6 9 29.78 1008 10 16 N/A
11:53 am 11:53 Sunny 100 37.8 35 1.7 10 10 NE 3 6 29.76 1008 10 16 N/A
12:53 pm 12:53 Sunny 102 38.9 35 1.7 10 10 ESE 9 15 29.74 1007 10 16 N/A
1:53 pm 13:53 Sunny 105 40.6 33 0.6 8 8 ESE 9 15 29.70 1006 10 16 N/A
2:53 pm 14:53 Sunny 108 42.2 31 -0.6 7 7 VRB 6 9 29.67 1005 10 16 N/A
3:53 pm 15:53 Sunny 109 42.8 29 -1.7 6 6 S 10 17 29.65 1004 10 16 N/A
4:53 pm 16:53 Sunny 108 42.2 28 -2.2 6 6 WSW 8 13 29.64 1004 10 16 N/A
5:53 pm 17:53 Sunny 108 42.2 27 -2.8 6 6 WSW 14 22 29.63 1003 10 16 N/A
6:53 pm 18:53 Sunny 107 41.7 26 -3.3 6 6 SW 15 24 29.62 1003 10 16 N/A
7:53 pm 19:53 Sunny 105 40.6 25 -3.9 6 6 SW 12 19 29.64 1004 10 16 N/A
8:53 pm 20:53 Clear 102 38.9 25 -3.9 6 6 SW 9 15 29.65 1004 10 16 N/A
9:53 pm 21:53 Clear 100 37.8 24 -4.4 7 7 WSW 10 17 29.67 1005 10 16 N/A
10:53 pm 22:53 Clear 99 37.2 28 -2.2 8 8 WSW 12 19 29.68 1005 10 16 N/A
11:53 pm 23:53 Clear 97 36.1 32 undefined 10 10 W 8 13 29.67 1005 10 16 N/A

Powered by AerisWeather